Weather History for Lyndonville, VT

Change the Weather History Date:

Friday, August 16, 2013

  Actual Average (K1V4) Record (K1V4)
Temperature  
Mean Temperature 60 °F 68 °F  
Max Temperature 75 °F 79 °F 96 °F (1944)
Min Temperature 47 °F 57 °F 39 °F (1934)
Degree Days  
Heating Degree Days 5 1  
Month to date heating degree days 15  
Since 1 June heating degree days 102  
Since 1 July heating degree days 30  
Cooling Degree Days 0 4  
Month to date cooling degree days 72  
Year to date cooling degree days 349  
Since 1 June cooling degree days 331  
Growing Degree Days 10 (Base 50)    
Moisture  
Dew Point 50 °F    
Average Humidity 76    
Maximum Humidity 92    
Minimum Humidity 44    
Precipitation  
Precipitation 0.00 in 0.14 in 1.64 in (1981)
Month to date precipitation 2.47  
Year to date precipitation 24.01  
Sea Level Pressure  
Sea Level Pressure 30.16 in    
Wind  
Wind Speed 1 mph (NW)    
Max Wind Speed 12 mph    
Max Gust Speed 16 mph    
Visibility 8 miles    
Events Fog , Rain    
T = Trace of Precipitation, MM = Missing Value Source: NWS Daily Summary

Daily Weather History Graph

Daily Weather History Graph

Search for Another Location

Airport:

Trip Planner

Search our weather history database for the weather conditions in past years. The results will help you decide how hot, cold, wet, or windy it might be!

Date:

Astronomy

Aug. 16, 2013 Rise Set
Actual Time 5:52 AM EDT 7:51 PM EDT
Civil Twilight 5:20 AM EDT 8:23 PM EDT
Nautical Twilight 4:41 AM EDT 9:01 PM EDT
Astronomical Twilight 3:59 AM EDT 9:43 PM EDT
Moon 4:12 PM EDT (8/16) 12:47 AM EDT (8/16)
Length of Visible Light 15h 02m
Length of Day
13h 59m
Waxing Gibbous, 74% of the Moon is Illuminated
Aug 16
Waxing Gibbous
Aug 20
Full
Aug 28
Last Quarter
Sep 5
New
Sep 12
First Quarter

Hourly Weather History & Observations

Time (EDT) Temp. Dew Point Humidity Pressure Visibility Wind Dir Wind Speed Gust Speed Precip Events Conditions
12:15 AM 50.2 °F 46.6 °F 87% 30.13 in 10.0 mi East 3.5 mph - N/A   Clear
12:35 AM 50.2 °F 46.9 °F 89% 30.12 in 10.0 mi Calm Calm - N/A   Clear
12:55 AM 50.7 °F 47.7 °F 89% 30.12 in 10.0 mi Calm Calm - N/A   Clear
1:15 AM 49.5 °F 46.6 °F 90% 30.12 in 10.0 mi NE 3.5 mph - N/A   Clear
1:35 AM 50.0 °F 46.9 °F 89% 30.11 in 10.0 mi Calm Calm - N/A   Clear
1:55 AM 49.1 °F 46.4 °F 90% 30.11 in 5.0 mi Calm Calm - N/A   Clear
2:15 AM 49.1 °F 46.4 °F 90% 30.11 in 10.0 mi Calm Calm - N/A   Clear
2:35 AM 49.5 °F 46.9 °F 91% 30.11 in 7.0 mi Calm Calm - N/A   Clear
2:55 AM 49.1 °F 46.6 °F 91% 30.11 in 10.0 mi Calm Calm - N/A   Clear
3:15 AM 48.2 °F 45.5 °F 90% 30.12 in 0.5 mi Calm Calm - N/A Fog Fog
3:35 AM 48.4 °F 45.9 °F 91% 30.12 in 0.2 mi Calm Calm - N/A Fog Fog
3:55 AM 48.2 °F 45.7 °F 91% 30.12 in 1.2 mi Calm Calm - N/A   Mist
4:15 AM 47.3 °F 45.0 °F 92% 30.12 in 1.5 mi Calm Calm - N/A   Mist
4:35 AM 47.8 °F 45.5 °F 92% 30.12 in 0.5 mi Calm Calm - N/A Fog Fog
4:55 AM 47.3 °F 45.0 °F 92% 30.13 in 3.0 mi Calm Calm - N/A   Overcast
5:15 AM 47.5 °F 45.1 °F 92% 30.13 in 3.0 mi Calm Calm - N/A   Overcast
5:35 AM 47.5 °F 45.1 °F 92% 30.14 in 1.5 mi Calm Calm - N/A   Overcast
5:55 AM 48.4 °F 46.0 °F 92% 30.14 in 0.5 mi Calm Calm - N/A Fog Fog
6:15 AM 48.2 °F 45.9 °F 92% 30.15 in 0.5 mi Calm Calm - N/A Fog Fog
6:35 AM 48.4 °F 46.0 °F 92% 30.15 in 5.0 mi Calm Calm - N/A   Mostly Cloudy
6:55 AM 47.5 °F 45.1 °F 92% 30.16 in 0.2 mi Calm Calm - N/A Fog Fog
7:15 AM 48.2 °F 45.9 °F 92% 30.16 in 0.2 mi Calm Calm - N/A Fog Fog
7:35 AM 50.2 °F 47.8 °F 92% 30.16 in 5.0 mi Calm Calm - N/A   Mostly Cloudy
7:55 AM 51.1 °F 48.7 °F 92% 30.16 in 10.0 mi Calm Calm - N/A   Mostly Cloudy
8:15 AM 52.0 °F 49.6 °F 92% 30.16 in 10.0 mi Calm Calm - N/A   Mostly Cloudy
8:35 AM 53.2 °F 50.9 °F 92% 30.16 in 10.0 mi Calm Calm - N/A   Scattered Clouds
8:55 AM 54.5 °F 52.2 °F 92% 30.16 in 10.0 mi Calm Calm - N/A   Clear
9:15 AM 56.5 °F 53.6 °F 90% 30.17 in 10.0 mi Calm Calm - N/A   Clear
9:35 AM 59.2 °F 50.5 °F 73% 30.18 in 10.0 mi South 3.5 mph - N/A   Clear
9:55 AM 61.0 °F 50.4 °F 68% 30.17 in 10.0 mi SSE 4.6 mph - N/A   Clear
10:15 AM 61.9 °F 50.2 °F 65% 30.17 in 10.0 mi Calm Calm - N/A   Clear
10:35 AM 64.0 °F 50.4 °F 61% 30.16 in 10.0 mi SE 4.6 mph - N/A   Clear
10:55 AM 65.3 °F 51.1 °F 60% 30.16 in 10.0 mi South 4.6 mph - N/A   Clear
11:15 AM 67.1 °F 51.4 °F 57% 30.16 in 10.0 mi Calm Calm - N/A   Clear
11:35 AM 68.2 °F 52.2 °F 56% 30.16 in 10.0 mi SE 4.6 mph - N/A   Clear
11:55 AM 69.3 °F 51.6 °F 53% 30.16 in 10.0 mi ENE 4.6 mph - N/A   Clear
12:15 PM 69.8 °F 50.0 °F 49% 30.16 in 10.0 mi Calm Calm - N/A   Clear
12:35 PM 71.4 °F 52.0 °F 50% 30.15 in 10.0 mi Calm Calm - N/A   Clear
12:55 PM 72.0 °F 49.1 °F 44% 30.15 in 10.0 mi Calm Calm - N/A   Clear
1:15 PM 69.4 °F 49.8 °F 50% 30.15 in 10.0 mi WSW 3.5 mph - N/A   Clear
1:35 PM 69.8 °F 48.9 °F 47% 30.15 in 10.0 mi West 5.8 mph - N/A   Scattered Clouds
4:15 PM 73.4 °F 51.8 °F 47% 30.15 in 10.0 mi WNW 6.9 mph - N/A   Mostly Cloudy
4:55 PM 73.4 °F 50.9 °F 45% 30.16 in 10.0 mi NW 11.5 mph 16.1 mph N/A   Mostly Cloudy
5:15 PM 71.1 °F 53.2 °F 53% 30.16 in 10.0 mi NW 5.8 mph - N/A   Mostly Cloudy
5:35 PM 69.8 °F 53.2 °F 56% 30.16 in 10.0 mi WNW 4.6 mph - N/A   Scattered Clouds
6:35 PM 70.7 °F 52.3 °F 52% 30.16 in 10.0 mi West 3.5 mph - N/A   Scattered Clouds
6:55 PM 69.4 °F 52.0 °F 54% 30.18 in 10.0 mi WNW 5.8 mph - N/A   Scattered Clouds
7:15 PM 68.4 °F 51.6 °F 55% 30.18 in 10.0 mi NW 3.5 mph - N/A   Scattered Clouds
7:35 PM 66.4 °F 52.0 °F 60% 30.19 in 10.0 mi NW 4.6 mph - N/A   Clear
7:55 PM 65.7 °F 51.8 °F 61% 30.20 in 10.0 mi WNW 3.5 mph - N/A   Clear
8:15 PM 64.8 °F 52.3 °F 64% 30.20 in 10.0 mi Calm Calm - N/A   Clear
8:35 PM 63.9 °F 52.7 °F 67% 30.20 in 10.0 mi NNE 3.5 mph - N/A   Scattered Clouds
8:55 PM 63.5 °F 52.7 °F 68% 30.21 in 10.0 mi Calm Calm - N/A   Clear
9:15 PM 62.6 °F 53.4 °F 72% 30.22 in 10.0 mi NNE 3.5 mph - N/A   Scattered Clouds
9:35 PM 63.5 °F 53.6 °F 70% 30.22 in 10.0 mi Calm Calm - N/A   Mostly Cloudy
9:55 PM 62.4 °F 54.7 °F 76% 30.23 in 10.0 mi North 4.6 mph - N/A Rain Rain
10:15 PM 61.3 °F 55.6 °F 81% 30.24 in 7.0 mi Calm Calm - N/A Rain Rain
10:35 PM 59.5 °F 55.4 °F 86% 30.24 in 7.0 mi Calm Calm - N/A Rain Light Rain
10:55 PM 59.0 °F 55.6 °F 88% 30.24 in 10.0 mi Calm Calm - N/A Rain Rain
11:15 PM 59.7 °F 55.6 °F 86% 30.24 in 10.0 mi Calm Calm - N/A   Overcast
11:35 PM 59.0 °F 55.4 °F 88% 30.24 in 10.0 mi Calm Calm - N/A   Overcast
11:55 PM 58.6 °F 55.6 °F 90% 30.24 in 10.0 mi Calm Calm - N/A   Overcast